[[{"header":{"parameterUnit":"m.s-1","parameterCategory":1,"la1":30.2992,"la2":30.254,"lo1":-89.0895,"lo2":-89.0443,"dy":0.0025,"dx":0.0025,"nx":19,"ny":19,"refTime":"2026-04-15T03:00:00:Z","depth":0,"parameterNumber":2,"parameterNumberName":"U-component_of_WINDS"},"data":[0,0,0,-1.2287,-1.2289,-1.2372,-1.2372,-1.2466,-1.2467,0,0,0,0,0,0,0,0,0,0,0,-1.2256,-1.2256,-1.2287,-1.2289,-1.2371,-1.2372,-1.2466,-1.2467,0,0,0,0,0,0,0,0,0,0,0,-1.2256,-1.2256,-1.2257,-1.2289,-1.2371,-1.2372,-1.2466,-1.2407,0,0,0,0,0,0,0,0,0,0,-1.2329,-1.2294,-1.2256,-1.2257,-1.229,-1.2371,-1.2372,-1.2405,-1.2411,-1.2424,0,-1.2434,0,-1.2452,-1.2472,-1.2473,0,0,0,-1.2293,-1.2289,-1.2317,-1.2257,-1.229,-1.2371,-1.2335,-1.2408,-1.2415,-1.2432,-1.2436,-1.2439,-1.2454,-1.2473,-1.2473,-1.2535,-1.2535,0,0,-1.2289,-1.2267,-1.2312,-1.2321,-1.2309,-1.2333,-1.2338,-1.2413,-1.2415,-1.2436,-1.2442,-1.2455,-1.2474,-1.2474,-1.2535,-1.2535,0,0,0,-1.2273,-1.2264,-1.2291,-1.2317,-1.2333,-1.2335,-1.2341,-1.2412,-1.2422,-1.2443,-1.2456,-1.2474,-1.2475,-1.2534,-1.2535,-1.2518,0,0,0,-1.227,-1.2254,-1.2288,-1.2276,-1.2331,-1.2373,-1.2338,-1.2417,-1.2426,-1.2456,-1.2474,-1.2476,-1.2534,-1.2535,-1.2518,-1.2513,0,0,0,-1.2253,-1.2253,-1.2262,-1.2275,-1.231,-1.2373,-1.2388,-1.2419,-1.2434,-1.2473,-1.2476,-1.2534,-1.2534,-1.2518,-1.2513,-1.2523,0,0,0,-1.2228,-1.2245,-1.2262,-1.2287,-1.2309,-1.2362,-1.2388,-1.2428,-1.2459,-1.2474,-1.2534,-1.2535,-1.2518,-1.2514,-1.2523,-1.2527,-1.2526,0,0,-1.2238,-1.2246,-1.2262,-1.2279,-1.2324,-1.2351,-1.2394,-1.2442,-1.2465,-1.251,-1.2512,-1.2518,-1.2513,-1.2523,-1.2532,-1.2532,0,0,0,-1.2258,-1.2269,-1.2286,-1.2316,-1.2354,-1.2386,-1.243,-1.2449,-1.2488,-1.2484,-1.2525,-1.2523,-1.2529,-1.2532,-1.2531,-1.2538,-1.2535,-1.2535,-1.2535,-1.2241,-1.227,-1.2299,-1.2339,-1.2367,-1.2413,-1.2438,-1.2471,-1.2491,-1.25,-1.2514,-1.2516,-1.2518,-1.2518,-1.2525,-1.2518,-1.2518,-1.2518,-1.2518,-1.2258,-1.2279,-1.2307,-1.2345,-1.2376,-1.2408,-1.2454,-1.2467,-1.2501,-1.2508,-1.2515,-1.252,-1.2517,-1.2524,-1.2517,-1.2517,-1.2517,-1.2518,-1.2518,-1.225,-1.2265,-1.2287,-1.2333,-1.2365,-1.2405,-1.2437,-1.2463,-1.2488,-1.2496,-1.2513,-1.2513,-1.2517,-1.2502,-1.2502,-1.2502,-1.2502,-1.2502,-1.2502,-1.2232,-1.2258,-1.2282,-1.2325,-1.2348,-1.2381,-1.2428,-1.2451,-1.2483,-1.25,-1.25,-1.252,-1.2511,-1.2508,-1.2502,-1.2502,-1.2502,-1.2502,-1.2502,-1.2238,-1.2242,-1.2278,-1.2301,-1.2354,-1.2384,-1.2418,-1.2462,-1.2485,-1.25,-1.2519,-1.2508,-1.2518,-1.2518,-1.2516,-1.2512,-1.2512,-1.2512,-1.2512,-1.2231,-1.2239,-1.2283,-1.2318,-1.2355,-1.239,-1.243,-1.2467,-1.2506,-1.2522,-1.2526,-1.2526,-1.2525,-1.2535,-1.2535,-1.2534,-1.2534,-1.2534,-1.2535,-1.2237,-1.2249,-1.2279,-1.2317,-1.2361,-1.2397,-1.2436,-1.2474,-1.2519,-1.2536,-1.2535,-1.2534,-1.2533,-1.2532,-1.2548,-1.2548,-1.2545,0,0]},{"header":{"parameterUnit":"m.s-1","parameterCategory":1,"la1":30.2992,"la2":30.254,"lo1":-89.0895,"lo2":-89.0443,"dy":0.0025,"dx":0.0025,"nx":19,"ny":19,"refTime":"2026-04-15T03:00:00:Z","depth":0,"parameterNumber":3,"parameterNumberName":"V-component_of_WINDS"},"data":[0,0,0,2.8037,2.8037,2.8022,2.8022,2.8014,2.8014,0,0,0,0,0,0,0,0,0,0,0,2.8048,2.8048,2.8037,2.8037,2.8022,2.8022,2.8014,2.8014,0,0,0,0,0,0,0,0,0,0,0,2.8048,2.8048,2.8048,2.8037,2.8022,2.8022,2.8014,2.8021,0,0,0,0,0,0,0,0,0,0,2.8034,2.805,2.8048,2.8048,2.8037,2.8022,2.8022,2.8021,2.8021,2.8025,0,2.8031,0,2.8023,2.8014,2.8014,0,0,0,2.8032,2.8051,2.8041,2.8048,2.8037,2.8022,2.8027,2.8021,2.802,2.8025,2.8031,2.803,2.8022,2.8014,2.8014,2.8059,2.8059,0,0,2.8032,2.8049,2.8041,2.8041,2.8044,2.8028,2.8027,2.802,2.8028,2.8031,2.803,2.8022,2.8014,2.8014,2.8058,2.8059,0,0,0,2.8038,2.805,2.8039,2.8041,2.8038,2.8027,2.8026,2.8028,2.8024,2.803,2.8022,2.8014,2.8014,2.8058,2.8058,2.8096,0,0,0,2.8039,2.8053,2.804,2.805,2.8038,2.8033,2.8035,2.8024,2.8023,2.8022,2.8014,2.8014,2.8057,2.8058,2.8093,2.811,0,0,0,2.8047,2.8054,2.8054,2.8051,2.8045,2.8033,2.8027,2.8024,2.8019,2.8014,2.8014,2.8057,2.8058,2.8092,2.8107,2.8126,0,0,0,2.806,2.8087,2.8055,2.8082,2.8045,2.8056,2.8027,2.8035,2.8035,2.8014,2.8057,2.8058,2.8091,2.8105,2.8124,2.8144,2.8154,0,0,2.8103,2.8093,2.8108,2.8079,2.8099,2.8057,2.8084,2.8069,2.8053,2.8058,2.8059,2.8094,2.8107,2.8126,2.8208,2.8216,0,0,0,2.8127,2.8138,2.814,2.8142,2.8131,2.8124,2.8103,2.8098,2.8101,2.8059,2.8106,2.8113,2.8124,2.8132,2.8139,2.8147,2.8063,2.8063,2.8063,2.821,2.819,2.8213,2.8192,2.8194,2.8173,2.8173,2.8162,2.8141,2.8152,2.8153,2.8206,2.8216,2.8222,2.823,2.8163,2.8163,2.8163,2.8163,2.8271,2.8283,2.8255,2.8267,2.8246,2.8256,2.8238,2.8223,2.823,2.8203,2.8211,2.8183,2.8231,2.8237,2.8166,2.8166,2.8165,2.8165,2.8165,2.8322,2.8324,2.8318,2.8318,2.8321,2.8299,2.8307,2.8287,2.8269,2.8278,2.8276,2.8275,2.8271,2.8278,2.8279,2.8279,2.8279,2.8279,2.8279,2.8376,2.8368,2.8377,2.837,2.8368,2.8365,2.8346,2.8344,2.8337,2.8323,2.8322,2.83,2.824,2.8225,2.8282,2.8281,2.8281,2.8281,2.8281,2.8442,2.8424,2.8438,2.8437,2.8427,2.8432,2.8408,2.8407,2.8403,2.8408,2.8384,2.8344,2.8331,2.8326,2.8313,2.8389,2.8389,2.8389,2.8389,2.8484,2.8476,2.8486,2.8486,2.8484,2.8464,2.8481,2.8467,2.845,2.8447,2.8433,2.8415,2.841,2.8401,2.8393,2.8381,2.8473,2.8473,2.8473,2.8522,2.8514,2.8531,2.8515,2.8507,2.85,2.8515,2.8516,2.8493,2.8476,2.8443,2.844,2.841,2.8402,2.8381,2.837,2.8347,0,0]}]]